Laramie, WY

2:13 AM MST on February 22, 2018 (GMT -0700)
Laramie Regional

Weather History for KLAR - June, 2014

Change the Weather History Date:

Wednesday, June 25, 2014

  Actual Average Record
Temperature  
Mean Temperature 64 °F 60 °F  
Max Temperature 77 °F 76 °F 93 °F (2012)
Min Temperature 51 °F 44 °F 30 °F (1958)
Degree Days  
Heating Degree Days 1 5  
Month to date heating degree days 217 218  
Since 1 June heating degree days 217 218  
Since 1 July heating degree days 8607 8807  
Cooling Degree Days 0 0  
Month to date cooling degree days 0 0  
Year to date cooling degree days 0 0  
Since 1 June cooling degree days 0 0  
Growing Degree Days 12 (Base 50)    
Moisture  
Dew Point 45 °F    
Average Humidity 62    
Maximum Humidity 96    
Minimum Humidity 27    
Precipitation  
Precipitation 0.02 in 0.04 in 0.82 in (2004)
Month to date precipitation 0.68 1.34  
Year to date precipitation 5.76 5.29  
Sea Level Pressure  
Sea Level Pressure 29.82 in    
Wind  
Wind Speed 13 mph (SSE)    
Max Wind Speed 30 mph    
Max Gust Speed 42 mph    
Visibility 8 miles    
Events Rain    
T = Trace of Precipitation, MM = Missing Value Source: NWS Daily Summary

Daily Weather History Graph

Daily Weather History Graph

Search for Another Location

Airport or City:

Trip Planner

Search our weather history database for the weather conditions in past years. The results will help you decide how hot, cold, wet, or windy it might be!

Date:

Astronomy

Jun. 25, 2014 Rise Set
Actual Time 5:30 AM MDT 8:39 PM MDT
Civil Twilight 4:56 AM MDT 9:13 PM MDT
Nautical Twilight 4:13 AM MDT 9:57 PM MDT
Astronomical Twilight 3:21 AM MDT 10:48 PM MDT
Moon 4:25 AM MDT (6/25) 7:13 PM MDT (6/25)
Length of Visible Light 16h 16m
Length of Day
15h 09m
Waning Crescent, 2% of the Moon is Illuminated
Jun 25
Waning Crescent
Jun 27
New
Jul 5
First Quarter
Jul 12
Full
Jul 18
Last Quarter

Hourly Weather History & Observations

Time (MDT) Temp. Dew Point Humidity Pressure Visibility Wind Dir Wind Speed Gust Speed Precip Events Conditions
12:53 AM 53.1 °F 51.1 °F 93% 29.90 in 6.0 mi SSE 15.0 mph - N/A   Clear
1:53 AM 53.1 °F 51.1 °F 93% 29.88 in 7.0 mi South 11.5 mph - N/A   Scattered Clouds
2:53 AM 53.1 °F 51.1 °F 93% 29.88 in 7.0 mi SSE 12.7 mph - N/A   Partly Cloudy
3:53 AM 52.0 °F 50.0 °F 93% 29.85 in 6.0 mi SSE 17.3 mph - N/A   Clear
4:53 AM 51.1 °F 50.0 °F 96% 29.86 in 5.0 mi SSE 13.8 mph - N/A   Clear
5:53 AM 51.1 °F 50.0 °F 96% 29.87 in 3.0 mi SSE 13.8 mph - N/A   Clear
6:53 AM 54.0 °F 51.1 °F 90% 29.88 in 4.0 mi SSE 12.7 mph - N/A   Clear
7:53 AM 57.0 °F 52.0 °F 83% 29.88 in 7.0 mi SSE 16.1 mph - N/A   Clear
8:53 AM 63.0 °F 51.1 °F 65% 29.85 in 10.0 mi SSE 10.4 mph - N/A   Clear
9:53 AM 66.9 °F 48.0 °F 51% 29.85 in 10.0 mi South 6.9 mph - N/A   Clear
10:53 AM 71.1 °F 42.1 °F 35% 29.82 in 10.0 mi Calm Calm - N/A   Clear
11:53 AM 73.9 °F 39.0 °F 28% 29.80 in 10.0 mi North 4.6 mph - N/A   Clear
12:53 PM 68.0 °F 39.0 °F 35% 29.84 in 8.0 mi South 9.2 mph - 0.01 in Rain Light Rain
2:53 PM 68.0 °F 36.0 °F 31% 29.83 in 10.0 mi Variable 4.6 mph - N/A   Partly Cloudy
3:53 PM 72.0 °F 36.0 °F 27% 29.80 in 10.0 mi East 5.8 mph - N/A   Clear
4:53 PM 70.0 °F 39.9 °F 33% 29.78 in 10.0 mi North - - N/A   Partly Cloudy
5:53 PM 73.0 °F 37.9 °F 28% 29.73 in 10.0 mi South 10.4 mph - N/A   Clear
7:53 PM 68.0 °F 41.0 °F 37% 29.75 in 10.0 mi SE 15.0 mph - N/A   Mostly Cloudy
8:53 PM 63.0 °F 41.0 °F 45% 29.75 in 10.0 mi SE 21.9 mph 27.6 mph N/A   Clear
9:53 PM 62.1 °F 41.0 °F 46% 29.74 in 10.0 mi SSE 23.0 mph 32.2 mph N/A   Clear
11:53 PM 57.0 °F 44.1 °F 62% 29.73 in 10.0 mi SE 21.9 mph 29.9 mph N/A   Scattered Clouds